Regional Weather Roundup
Issued by NWS

Home | Current Version | Previous Version | Graphics & Text | Print | Product List | Glossary On
Versions: 1 2 3 4 5 6 7 8 9 10 11 12 13 14 15 16 17 18 19 20 21 22 23 24 25 26 27 28 29 30 31 32 33 34 35 36 37 38 39 40 41 42 43 44 45 46 47 48 49 50
848
ASUS45 KBOU 231610
RWRCO

WEATHER ROUNDUP FOR COLORADO
NATIONAL WEATHER SERVICE PUEBLO CO
900 AM MST FRI FEB 23 2018

NOTE: "FAIR" INDICATES FEW OR NO CLOUDS BELOW 12000 FEET WITH NO
SIGNIFICANT WEATHER AND/OR OBSTRUCTIONS TO VISIBILITY.

COZ001>005-013-030-031-231700-
...NORTHWEST COLORADO...

CITY           SKY/WX    TMP DP  RH WIND       PRES   REMARKS
CRAIG          MOSUNNY   23  13  65 NE10      29.94S WCI  12
HAYDEN         MOSUNNY   19  13  77 SE6       29.95S WCI  11
MEEKER         PTSUNNY   14  11  87 CALM      29.91F
RABBIT EARS PA NOT AVBL
STEAMBOAT SPGS FAIR      15  13  92 CALM      29.94S
WALDEN         FAIR      14   7  73 SE5       29.93S WCI   6
$$

COZ006>008-011-231700-
...WEST CENTRAL VALLEYS...

CITY           SKY/WX    TMP DP  RH WIND       PRES   REMARKS
GRAND JUNCTION PTSUNNY   32  22  66 E15G21    29.95R WCI  22
MONTROSE       CLOUDY    28  13  53 SE8       29.99S WCI  20
EAGLE          CLOUDY    32  18  56 CALM      29.99F
RIFLE          CLOUDY    20  20 100 CALM      29.96F FOG
DELTA          NOT AVBL
NUCLA          PTSUNNY   32  16  51 S21G29    29.99S WCI  20
$$

COZ017>023-064>068-231700-
...SOUTHWEST COLORADO...

CITY           SKY/WX    TMP DP  RH WIND       PRES   REMARKS
DURANGO        SUNNY     20  14  77 NE3       30.04S
CORTEZ         CLOUDY    32  13  45 S13       30.01S WCI  22
PAGOSA SPRINGS FAIR      17  16  95 CALM      30.03F
TELLURIDE      CLOUDY    20   3  48 S14G24    29.93S WCI   6
WOLF CREEK PAS CLOUDY     3   3 100 S21G35    29.92F WCI -18
$$

COZ009-010-012-014-032>034-037-058>063-231700-
...CENTRAL COLORADO...

CITY           SKY/WX    TMP DP  RH WIND       PRES   REMARKS
ASPEN          MOSUNNY   20  12  71 CALM      29.91F
BUENA VISTA    FAIR      21   9  60 E5        29.98F WCI  14
COPPER MTN     MOSUNNY   10  -4  52 SE15      29.83F WCI  -6
BERTHOUD PASS  FAIR       1  -9  60 SW9G18    29.82S WCI -14
COTTONWOOD PAS MOSUNNY   19  14  79 SE6       29.92F WCI  11
GUNNISON       SUNNY     12   3  67 NE6       30.00F WCI   3
KREMMLING      SUNNY     23  14  68 CALM      29.97F
LEADVILLE      PTSUNNY    9   3  77 NW5       29.89S WCI   1
MONARCH PASS   PTSUNNY    3   0  85 S14       29.97R WCI -15
SALIDA         FAIR      23  10  58 CALM      30.07F
SUNLIGHT       LGT SNOW   9   5  85 S8G26     29.89S WCI  -4
WILKERSON PASS SUNNY      9   3  78 SW12G21   29.90R WCI  -6
$$

COZ069>075-231700-
...SAN LUIS VALLEY/SANGRE DE CRISTO MOUNTAINS...

CITY           SKY/WX    TMP DP  RH WIND       PRES   REMARKS
ALAMOSA        SUNNY     29   9  43 S21       29.99F WCI  16
DEL NORTE      FAIR      18  10  71 NE5       30.01S WCI  11
LA VETA PASS   SUNNY     18   5  57 SW20G36   30.04S WCI   1
SAGUACHE       SUNNY     18   7  62 NW3       30.02S
$$

COZ035-036-038>040-231700-
...NORTHERN COLORADO FRONT RANGE...

CITY           SKY/WX    TMP DP  RH WIND       PRES   REMARKS
DENVER INTL AP FOG       20  18  92 S7        30.06R VSB 1/4 WCI  11
DMNS CITY PARK NOT AVBL
AURORA         FOG       18  18  99 CALM      30.05S VSB 3/4
FRONT RANGE AP FOG       21  19  93 SE5       30.06S VSB 1/2 WCI  15
ERIE MUNI ARPT FAIR      17  16  94 S3        30.12S FOG
BOULDER MUN AP FAIR      25  12  58 CALM      30.05S
CENTENNIAL     PTSUNNY   18  18 100 E3        30.03S FOG
BROOMFIELD     MOSUNNY   18  12  79 CALM      30.05R
LOVELAND       SUNNY     15  13  91 CALM      30.07S
LONGMONT       FAIR      22  15  72 CALM      30.08S
$$

COZ041-046-047-076>085-087-088-231700-
...PIKES PEAK/PALMER DIVIDE AND SOUTHERN FOOTHILLS...

CITY           SKY/WX    TMP DP  RH WIND       PRES   REMARKS
COLO. SPRINGS  MOSUNNY   25  19  78 CALM      30.03S
A. F. ACADEMY  SUNNY     24  17  77 S3        30.00S
SCHRIEVER AFB  NOT AVBL
CHEYENNE MTN   NOT AVBL
ELLICOTT         N/A    N/A N/A N/A W3        30.02R
FALCON         FAIR      25  18  77 MISG      30.02S
FORT CARSON    SUNNY     25  19  75 CALM      30.03S
LIMON          SUNNY     24  21  88 VRB3      30.07R
MONUMENT HILL  SUNNY     19  14  79 NE3       30.01S
CANON CITY     SUNNY     27  19  74 CALM      30.06R
WALSENBURG     FAIR      39   9  28 W17       30.00F
TRINIDAD       SUNNY     29  10  45 SE5       30.04R WCI  24
$$

COZ042>045-048>051-090-091-231700-
...NORTHEAST COLORADO...

CITY           SKY/WX    TMP DP  RH WIND       PRES   REMARKS
GREELEY ARPT   SUNNY     24  16  71 S5        30.10S HAZE    WCI  18
AKRON          SUNNY     26  18  71 E9        30.10R WCI  17
BURLINGTON     SUNNY     26  21  81 VRB3      30.13R
WRAY           FAIR      28  21  74 NE5       30.16S WCI  23
YUMA           NOT AVBL
STERLING       FAIR      21  19  93 SW3       30.12S FOG
HOLYOKE        FAIR      28  19  69 NE7       30.16R WCI  21
FORT MORGAN    FAIR      22  19  87 SW3       30.11S FOG
$$

COZ086-089-092>099-231700-
...SOUTHEAST COLORADO...

CITY           SKY/WX    TMP DP  RH WIND       PRES   REMARKS
PUEBLO         SUNNY     25  20  81 S3        30.08S HAZE
LA JUNTA       FOG       22  19  89 N5        30.13R VSB 1/4 WCI  16
LAMAR          CLOUDY    24  22  91 CALM      30.14R FOG
SPRINGFIELD      N/A     23  22  96 E7        30.11R WCI  15
$$





USA.gov is the U.S. government's official web portal to all federal, state and local government web resources and services.